Weather History for Muskegon, MI

Change the Weather History Date:

Monday, March 5, 2012

  Actual Average Record
Temperature  
Mean Temperature 25 °F 31 °F  
Max Temperature 30 °F 39 °F 66 °F (1983)
Min Temperature 19 °F 24 °F -5 °F (1948)
Degree Days  
Heating Degree Days 40 34  
Month to date heating degree days 167 172  
Since 1 July heating degree days 4181 4904  
Cooling Degree Days 0 0  
Month to date cooling degree days 0 0  
Year to date cooling degree days 0 0  
Moisture  
Dew Point 15 °F    
Average Humidity 64    
Maximum Humidity 77    
Minimum Humidity 50    
Precipitation  
Precipitation T in 0.08 in 1.37 in (2004)
Month to date precipitation 0.67 0.37  
Year to date precipitation 5.64 4.23  
Snow  
Snow T in 0.50 in 6.00 in (1919)
Month to date snowfall 5.3 2.2  
Since 1 July snowfall 55.4 84.6  
Snow Depth 3.00 in    
Sea Level Pressure  
Sea Level Pressure 30.25 in    
Wind  
Wind Speed 7 mph (NW)    
Max Wind Speed 16 mph    
Max Gust Speed 21 mph    
Visibility 8 miles    
Events Snow    
T = Trace of Precipitation, MM = Missing Value Source: NWS Daily Summary

Daily Weather History Graph

Daily Weather History Graph

Search for Another Location

Airport:

Trip Planner

Search our weather history database for the weather conditions in past years. The results will help you decide how hot, cold, wet, or windy it might be!

Date:

Astronomy

Mar. 05, 2012 Rise Set
Actual Time 7:13 AM EST 6:39 PM EST
Civil Twilight 6:45 AM EST 7:08 PM EST
Nautical Twilight 6:12 AM EST 7:41 PM EST
Astronomical Twilight 5:39 AM EST 8:14 PM EST
Moon 3:53 PM EST (3/5) 5:16 AM EST (3/5)
Length of Visible Light 12h 23m
Length of Day
11h 26m
Waxing Gibbous, 91% of the Moon is Illuminated
Mar 5
Waxing Gibbous
Mar 8
Full
Mar 14
Last Quarter
Mar 22
New
Mar 30
First Quarter

Hourly Weather History & Observations

Time (EST) Temp. Windchill Dew Point Humidity Pressure Visibility Wind Dir Wind Speed Gust Speed Precip Events Conditions
12:55 AM 19.9 °F 12.1 °F 9.0 °F 62% 30.01 in 10.0 mi NE 5.8 mph - N/A   Mostly Cloudy
1:55 AM 19.9 °F 13.4 °F 10.0 °F 65% 30.03 in 10.0 mi NNE 4.6 mph - N/A   Overcast
2:55 AM 19.9 °F 11.1 °F 10.9 °F 68% 30.05 in 10.0 mi NNE 6.9 mph - N/A   Overcast
3:55 AM 19.9 °F 13.4 °F 10.0 °F 65% 30.08 in 10.0 mi North 4.6 mph - N/A   Overcast
4:55 AM 19.9 °F 13.4 °F 10.9 °F 68% 30.12 in 9.0 mi NNE 4.6 mph - N/A   Overcast
5:55 AM 19.9 °F 14.9 °F 12.9 °F 74% 30.15 in 9.0 mi North 3.5 mph - 0.00 in Snow Light Snow
6:55 AM 21.0 °F - 15.1 °F 78% 30.19 in 5.0 mi Calm Calm - 0.00 in Snow Light Snow
7:17 AM 21.2 °F - 15.8 °F 80% 30.18 in 2.5 mi Calm Calm - 0.00 in Snow Light Snow
7:26 AM 21.2 °F - 15.8 °F 80% 30.18 in 1.2 mi Calm Calm - 0.00 in Snow Light Snow
7:38 AM 21.2 °F - 15.8 °F 80% 30.19 in 2.5 mi Calm Calm - 0.01 in Snow Light Snow
7:53 AM 21.2 °F - 15.8 °F 80% 30.20 in 2.5 mi Calm Calm - 0.01 in Snow Light Snow
7:55 AM 21.0 °F - 16.0 °F 81% 30.23 in 3.0 mi Calm Calm - 0.01 in Snow Light Snow
8:21 AM 21.2 °F - 15.8 °F 80% 30.22 in 2.5 mi Calm Calm - N/A Snow Light Snow
8:53 AM 21.2 °F - 15.8 °F 80% 30.23 in 6.0 mi Calm Calm - 0.00 in Snow Light Snow
8:55 AM 21.0 °F - 16.0 °F 81% 30.27 in 6.0 mi Calm Calm - 0.00 in Snow Light Snow
9:55 AM 25.0 °F 15.5 °F 16.0 °F 69% 30.29 in 9.0 mi NW 9.2 mph - 0.00 in Snow Light Snow
10:55 AM 26.1 °F 15.6 °F 16.0 °F 66% 30.32 in 8.0 mi NNW 11.5 mph - 0.00 in Snow Light Snow
11:55 AM 26.1 °F 17.6 °F 15.1 °F 63% 30.35 in 9.0 mi NW 8.1 mph - 0.00 in Snow Light Snow
12:55 PM 27.0 °F 15.6 °F 12.9 °F 56% 30.35 in 9.0 mi NW 13.8 mph - 0.00 in   Overcast
1:55 PM 27.0 °F 17.3 °F 15.1 °F 61% 30.37 in 10.0 mi WNW 10.4 mph - 0.00 in Snow Light Snow
2:55 PM 28.0 °F 21.7 °F 12.0 °F 51% 30.37 in 10.0 mi WNW 5.8 mph - 0.00 in   Mostly Cloudy
3:55 PM 28.0 °F 21.7 °F 12.9 °F 53% 30.37 in 10.0 mi West 5.8 mph - N/A   Partly Cloudy
4:55 PM 28.0 °F 20.8 °F 12.9 °F 53% 30.37 in 10.0 mi West 6.9 mph - N/A   Partly Cloudy
5:55 PM 27.0 °F 18.0 °F 14.0 °F 58% 30.37 in 10.0 mi SSW 9.2 mph - N/A   Partly Cloudy
6:55 PM 27.0 °F 19.5 °F 16.0 °F 63% 30.35 in 10.0 mi South 6.9 mph - N/A   Scattered Clouds
7:55 PM 27.0 °F 20.5 °F 17.1 °F 66% 30.35 in 10.0 mi SE 5.8 mph - N/A   Mostly Cloudy
8:55 PM 28.0 °F 20.8 °F 17.1 °F 63% 30.35 in 10.0 mi SE 6.9 mph - N/A   Overcast
9:55 PM 28.9 °F 20.4 °F 17.1 °F 61% 30.34 in 10.0 mi SSE 9.2 mph - N/A   Overcast
10:55 PM 28.9 °F 20.4 °F 18.0 °F 64% 30.34 in 10.0 mi SSE 9.2 mph - N/A   Overcast
11:55 PM 30.0 °F 21.7 °F 18.0 °F 61% 30.32 in 10.0 mi SSE 9.2 mph - N/A   Overcast